Location: Rosenheim
(47.8408°N, 12.2113°E)
Time: 19:36:08
(UTC+01:00)

ISS - Pass Details

Date: 11 November 2017
Orbit: 402 x 407 km, 51.6° (Epoch: 22 November)

Event Time Altitude Azimuth Distance (km) Brightness Sun altitude
Exits shadow 05:09:51 43° 15° (NNE) 577 -3.1 -20.4°
Drops below altitude 10° 05:12:53 10° 82° (E) 1,456 0.1 -19.9°
Sets 05:15:01 0° 89° (E) 2,315 1.6 -19.5°
